{"data":{"norad_id":68594,"intl_designator":"2026-072X","name":"KUIPER-00294","alt_names":[],"object_type":"PAYLOAD","status":"ACTIVE","operator":null,"country":"US","launch_date":"2026-04-04","launch_site_code":"AFETR","launch_vehicle":null,"mission":null,"orbit_class":"UNKNOWN","rcs_meters":null,"size_class":null,"mass_kg":null,"dimensions":null,"purposes":[],"wikipedia_slug":null,"has_3d_model":false,"image_url":null,"decayed_at":null,"tle_current":{"epoch":"2026-09-20T00:35:10.616352Z","epoch_age_seconds":107612,"freshness":"FRESH","line1":"1 68594U 26072X   26263.02442843  .00000521  00000+0  97416-4 0  9993","line2":"2 68594  51.9004 116.2756 0000765 119.0877 241.0162 14.79929141 25440","mean_motion":14.79929141,"eccentricity":7.65e-5,"inclination_deg":51.9004,"raan_deg":116.2756,"arg_perigee_deg":119.0877,"mean_anomaly_deg":241.0162,"bstar":9.7416e-5,"rev_number":2544,"period_min":97.301955891414,"perigee_km":629.01172322015,"apogee_km":630.08389899625,"semimajor_km":7007.6848111082,"source":"CELESTRAK","updated_at":"2026-09-20T09:00:24.353513Z"}}}